BDR642 HJJJ-HUEN

Flight info

Callsign BDR642
Flight time 1h 8m
Altitude 30000
Route ATUGA1B ATUGA G656 UVBAX UVBAX2A
Aircraft B738/M-SDE2E3FGHIRWXY/LB1

Departure

Time 2026-05-08 18:06
Airport Juba International Airport (HJJJ)

Arrival

Time 2026-05-08 19:15
Airport Entebbe International Airport (HUEN)
Time Latitude Longitude Altitude Speed Heading
2026-05-08 17:28 4.86513 31.60463 1509 ft 0 kts 220°
2026-05-08 17:57 4.86524 31.60471 1510 ft 4 kts 220°
2026-05-08 17:58 4.86544 31.60489 1508 ft 4 kts 220°
2026-05-08 17:58 4.86561 31.60503 1505 ft 4 kts 205°
2026-05-08 17:58 4.86587 31.60508 1507 ft 4 kts 177°
2026-05-08 17:58 4.86604 31.60507 1506 ft 1 kts 175°
2026-05-08 17:59 4.86606 31.60507 1506 ft 1 kts 175°
2026-05-08 18:02 4.86605 31.60507 1503 ft 0 kts 175°
2026-05-08 18:02 4.86599 31.60509 1508 ft 2 kts 156°
2026-05-08 18:02 4.86561 31.60549 1507 ft 9 kts 130°
2026-05-08 18:02 4.86514 31.60606 1506 ft 10 kts 130°
2026-05-08 18:03 4.86460 31.60670 1507 ft 14 kts 130°
2026-05-08 18:03 4.86396 31.60746 1504 ft 12 kts 130°
2026-05-08 18:03 4.86387 31.60804 1501 ft 11 kts 66°
2026-05-08 18:03 4.86451 31.60867 1501 ft 12 kts 42°
2026-05-08 18:04 4.86506 31.60904 1501 ft 7 kts 22°
2026-05-08 18:04 4.86546 31.60883 1501 ft 7 kts 311°
2026-05-08 18:04 4.86555 31.60873 1501 ft 0 kts 310°
2026-05-08 18:05 4.86556 31.60872 1502 ft 2 kts 310°
2026-05-08 18:05 4.86619 31.60797 1505 ft 37 kts 310°
2026-05-08 18:06 4.86939 31.60419 1513 ft 104 kts 312°
2026-05-08 18:06 4.87529 31.59726 1515 ft 158 kts 310°
2026-05-08 18:06 4.88304 31.58836 1950 ft 167 kts 315°
2026-05-08 18:06 4.89048 31.57985 2691 ft 164 kts 308°
2026-05-08 18:07 4.89784 31.57018 3141 ft 180 kts 309°
2026-05-08 18:07 4.90598 31.56035 3684 ft 188 kts 311°
2026-05-08 18:07 4.91512 31.54973 3909 ft 215 kts 311°
2026-05-08 18:07 4.92514 31.53794 4177 ft 229 kts 310°
2026-05-08 18:08 4.93580 31.52525 4396 ft 244 kts 311°
2026-05-08 18:08 4.94548 31.51087 4690 ft 257 kts 290°
2026-05-08 18:08 4.94697 31.49321 5161 ft 263 kts 256°
2026-05-08 18:08 4.93804 31.47712 5476 ft 277 kts 223°
2026-05-08 18:09 4.92317 31.46460 6109 ft 281 kts 217°
2026-05-08 18:09 4.90792 31.45221 6768 ft 285 kts 217°
2026-05-08 18:09 4.89248 31.43950 7414 ft 289 kts 218°
2026-05-08 18:09 4.87567 31.42835 8029 ft 292 kts 197°
2026-05-08 18:10 4.85577 31.42489 8709 ft 292 kts 176°
2026-05-08 18:10 4.83573 31.42812 9397 ft 293 kts 163°
2026-05-08 18:10 4.81612 31.43334 10008 ft 293 kts 161°
2026-05-08 18:10 4.79620 31.43895 10311 ft 313 kts 161°
2026-05-08 18:11 4.77476 31.44495 10726 ft 325 kts 162°
2026-05-08 18:11 4.75274 31.45097 11373 ft 330 kts 162°
2026-05-08 18:11 4.73049 31.45693 12100 ft 332 kts 162°
2026-05-08 18:11 4.70808 31.46288 12850 ft 334 kts 162°
2026-05-08 18:12 4.68546 31.46885 13582 ft 338 kts 162°
2026-05-08 18:12 4.66263 31.47485 14245 ft 342 kts 163°
2026-05-08 18:12 4.63954 31.48093 14903 ft 345 kts 163°
2026-05-08 18:12 4.61640 31.48701 15553 ft 350 kts 163°
2026-05-08 18:13 4.59346 31.49508 16166 ft 352 kts 149°
2026-05-08 18:13 4.57426 31.51027 16833 ft 353 kts 135°
2026-05-08 18:13 4.55657 31.52757 17467 ft 357 kts 134°
2026-05-08 18:13 4.53883 31.54529 18047 ft 363 kts 134°
2026-05-08 18:14 4.52079 31.56321 18582 ft 368 kts 135°
2026-05-08 18:14 4.50240 31.58121 19121 ft 371 kts 135°
2026-05-08 18:14 4.48407 31.59911 19644 ft 375 kts 135°
2026-05-08 18:14 4.46529 31.61735 20155 ft 379 kts 135°
2026-05-08 18:15 4.44624 31.63581 20673 ft 382 kts 135°
2026-05-08 18:15 4.42703 31.65441 21172 ft 386 kts 135°
2026-05-08 18:15 4.40761 31.67323 21694 ft 390 kts 135°
2026-05-08 18:15 4.38801 31.69224 22192 ft 394 kts 135°
2026-05-08 18:16 4.36822 31.71142 22680 ft 398 kts 135°
2026-05-08 18:16 4.34816 31.73088 23032 ft 405 kts 135°
2026-05-08 18:16 4.32791 31.75052 23529 ft 406 kts 135°
2026-05-08 18:16 4.30784 31.76998 23990 ft 407 kts 135°
2026-05-08 18:17 4.28742 31.78977 24431 ft 409 kts 135°
2026-05-08 18:17 4.26566 31.80810 24799 ft 413 kts 149°
2026-05-08 18:17 4.23891 31.81855 25182 ft 415 kts 168°
2026-05-08 18:17 4.21010 31.82033 25601 ft 417 kts 184°
2026-05-08 18:18 4.18123 31.81764 26097 ft 416 kts 186°
2026-05-08 18:18 4.15259 31.81456 26655 ft 414 kts 186°
2026-05-08 18:18 4.12406 31.81155 27252 ft 411 kts 186°
2026-05-08 18:18 4.09568 31.80874 27829 ft 408 kts 186°
2026-05-08 18:19 4.06745 31.80610 28378 ft 407 kts 186°
2026-05-08 18:19 4.03968 31.80358 28949 ft 405 kts 185°
2026-05-08 18:19 4.01162 31.80105 29488 ft 404 kts 185°
2026-05-08 18:19 3.98348 31.80021 29899 ft 406 kts 177°
2026-05-08 18:20 3.92735 31.80619 29911 ft 404 kts 173°
2026-05-08 18:20 3.87169 31.81375 29918 ft 404 kts 173°
2026-05-08 18:21 3.81613 31.82074 29911 ft 405 kts 173°
2026-05-08 18:21 3.76012 31.82733 29915 ft 406 kts 174°
2026-05-08 18:22 3.70400 31.83375 29906 ft 406 kts 174°
2026-05-08 18:22 3.64794 31.84012 29908 ft 405 kts 174°
2026-05-08 18:23 3.59206 31.84648 29913 ft 404 kts 174°
2026-05-08 18:23 3.53655 31.85280 29904 ft 404 kts 174°
2026-05-08 18:24 3.48080 31.85915 29915 ft 403 kts 174°
2026-05-08 18:24 3.42497 31.86551 29916 ft 404 kts 174°
2026-05-08 18:25 3.36917 31.87186 29921 ft 404 kts 174°
2026-05-08 18:25 3.31362 31.87819 29923 ft 404 kts 174°
2026-05-08 18:26 3.25771 31.88455 29919 ft 405 kts 174°
2026-05-08 18:26 3.20168 31.89093 29935 ft 405 kts 174°
2026-05-08 18:27 3.15512 31.89623 29925 ft 405 kts 174°
2026-05-08 18:27 3.08976 31.90367 29928 ft 404 kts 174°
2026-05-08 18:28 3.03421 31.90999 29930 ft 404 kts 174°
2026-05-08 18:28 2.97840 31.91634 29931 ft 404 kts 174°
2026-05-08 18:29 2.92263 31.92268 29936 ft 403 kts 174°
2026-05-08 18:29 2.86693 31.92902 29936 ft 403 kts 174°
2026-05-08 18:30 2.81155 31.93532 29941 ft 403 kts 174°
2026-05-08 18:30 2.75581 31.94166 29942 ft 403 kts 174°
2026-05-08 18:31 2.70012 31.94799 29942 ft 403 kts 174°
2026-05-08 18:31 2.64433 31.95434 29941 ft 403 kts 174°
2026-05-08 18:32 2.58896 31.96063 29937 ft 403 kts 174°
2026-05-08 18:32 2.53312 31.96703 29943 ft 404 kts 173°
2026-05-08 18:33 2.47778 31.97657 29948 ft 404 kts 169°
2026-05-08 18:33 2.42258 31.98759 29942 ft 404 kts 169°
2026-05-08 18:34 2.36741 31.99842 29942 ft 404 kts 169°
2026-05-08 18:34 2.31249 32.00897 29943 ft 404 kts 169°
2026-05-08 18:35 2.25727 32.01948 29937 ft 404 kts 169°
2026-05-08 18:35 2.20199 32.03000 29943 ft 404 kts 169°
2026-05-08 18:36 2.14708 32.04045 29947 ft 404 kts 169°
2026-05-08 18:36 2.09185 32.05096 29946 ft 404 kts 169°
2026-05-08 18:37 2.03654 32.06148 29946 ft 404 kts 169°
2026-05-08 18:37 1.98129 32.07200 29945 ft 404 kts 169°
2026-05-08 18:38 1.92634 32.08246 29948 ft 404 kts 169°
2026-05-08 18:38 1.87108 32.09296 29947 ft 404 kts 169°
2026-05-08 18:39 1.81606 32.10340 29688 ft 400 kts 169°
2026-05-08 18:39 1.78898 32.10854 29421 ft 393 kts 169°
2026-05-08 18:39 1.76219 32.11363 29049 ft 390 kts 169°
2026-05-08 18:40 1.73567 32.11867 28667 ft 386 kts 169°
2026-05-08 18:40 1.70934 32.12367 28276 ft 383 kts 169°
2026-05-08 18:40 1.68355 32.12856 27904 ft 381 kts 169°
2026-05-08 18:40 1.65767 32.13348 27539 ft 378 kts 169°
2026-05-08 18:41 1.63188 32.13837 27156 ft 376 kts 169°
2026-05-08 18:41 1.60625 32.14324 26790 ft 374 kts 169°
2026-05-08 18:41 1.58081 32.14807 26417 ft 372 kts 169°
2026-05-08 18:41 1.55543 32.15289 26058 ft 370 kts 169°
2026-05-08 18:42 1.53015 32.15769 25680 ft 369 kts 169°
2026-05-08 18:42 1.50495 32.16248 25322 ft 368 kts 169°
2026-05-08 18:42 1.48014 32.16719 24939 ft 367 kts 169°
2026-05-08 18:42 1.45513 32.17194 24574 ft 366 kts 169°
2026-05-08 18:43 1.43009 32.17669 24202 ft 366 kts 169°
2026-05-08 18:43 1.40508 32.18144 23827 ft 365 kts 169°
2026-05-08 18:43 1.38011 32.18618 23442 ft 365 kts 169°
2026-05-08 18:43 1.35526 32.19090 23029 ft 363 kts 169°
2026-05-08 18:44 1.33048 32.19560 22648 ft 361 kts 169°
2026-05-08 18:44 1.30586 32.20027 22273 ft 359 kts 169°
2026-05-08 18:44 1.28141 32.20491 21916 ft 356 kts 168°
2026-05-08 18:44 1.25719 32.20951 21565 ft 354 kts 168°
2026-05-08 18:45 1.23338 32.21404 21214 ft 352 kts 168°
2026-05-08 18:45 1.20939 32.21859 20858 ft 350 kts 168°
2026-05-08 18:45 1.18555 32.22312 20510 ft 348 kts 168°
2026-05-08 18:45 1.16183 32.22762 20157 ft 346 kts 168°
2026-05-08 18:46 1.13827 32.23209 19813 ft 344 kts 168°
2026-05-08 18:46 1.11478 32.23659 19450 ft 343 kts 168°
2026-05-08 18:46 1.09141 32.24131 19067 ft 343 kts 167°
2026-05-08 18:46 1.06805 32.24614 18710 ft 342 kts 167°
2026-05-08 18:47 1.04508 32.25092 18357 ft 341 kts 167°
2026-05-08 18:47 1.02192 32.25574 17985 ft 340 kts 167°
2026-05-08 18:47 0.99883 32.26053 17616 ft 338 kts 167°
2026-05-08 18:47 0.97589 32.26527 17259 ft 335 kts 167°
2026-05-08 18:48 0.95310 32.26998 16914 ft 333 kts 167°
2026-05-08 18:48 0.93050 32.27465 16571 ft 330 kts 167°
2026-05-08 18:48 0.90811 32.27927 16234 ft 328 kts 167°
2026-05-08 18:48 0.88583 32.28386 15903 ft 326 kts 167°
2026-05-08 18:49 0.86401 32.28831 15581 ft 323 kts 167°
2026-05-08 18:49 0.84208 32.29291 15251 ft 321 kts 167°
2026-05-08 18:49 0.82034 32.29752 14920 ft 319 kts 167°
2026-05-08 18:49 0.79859 32.30200 14597 ft 317 kts 167°
2026-05-08 18:50 0.77715 32.30638 14267 ft 312 kts 167°
2026-05-08 18:50 0.75606 32.31069 13946 ft 305 kts 167°
2026-05-08 18:50 0.73556 32.31488 13613 ft 298 kts 167°
2026-05-08 18:50 0.72216 32.31763 13399 ft 297 kts 167°
2026-05-08 18:51 0.69518 32.32318 12964 ft 295 kts 167°
2026-05-08 18:51 0.67540 32.32725 12659 ft 293 kts 167°
2026-05-08 18:51 0.65545 32.33136 12344 ft 292 kts 167°
2026-05-08 18:51 0.63551 32.33547 11965 ft 293 kts 167°
2026-05-08 18:52 0.61557 32.33958 11650 ft 292 kts 167°
2026-05-08 18:52 0.59567 32.34368 11336 ft 291 kts 167°
2026-05-08 18:52 0.57584 32.34777 11024 ft 290 kts 167°
2026-05-08 18:52 0.55612 32.35183 10721 ft 289 kts 167°
2026-05-08 18:53 0.53642 32.35589 10413 ft 289 kts 167°
2026-05-08 18:53 0.51701 32.35989 10115 ft 288 kts 167°
2026-05-08 18:53 0.49736 32.36394 9943 ft 281 kts 167°
2026-05-08 18:53 0.47852 32.36782 9652 ft 280 kts 167°
2026-05-08 18:54 0.45952 32.37174 9360 ft 278 kts 167°
2026-05-08 18:54 0.44061 32.37564 9074 ft 276 kts 167°
2026-05-08 18:54 0.42184 32.37951 8781 ft 275 kts 167°
2026-05-08 18:54 0.40316 32.38336 8495 ft 274 kts 167°
2026-05-08 18:55 0.36607 32.39111 7935 ft 271 kts 167°
2026-05-08 18:55 0.34765 32.39465 7764 ft 266 kts 169°
2026-05-08 18:55 0.32992 32.39760 7645 ft 258 kts 170°
2026-05-08 18:56 0.31240 32.40024 7537 ft 251 kts 172°
2026-05-08 18:56 0.29539 32.40294 7431 ft 244 kts 172°
2026-05-08 18:56 0.27880 32.40501 7339 ft 237 kts 172°
2026-05-08 18:56 0.26288 32.40721 7249 ft 223 kts 171°
2026-05-08 18:57 0.24811 32.40929 7166 ft 206 kts 171°
2026-05-08 18:57 0.23894 32.41058 7127 ft 194 kts 171°
2026-05-08 18:57 0.22181 32.41298 6906 ft 179 kts 171°
2026-05-08 18:57 0.20976 32.41464 6718 ft 177 kts 172°
2026-05-08 18:58 0.19771 32.41636 6537 ft 173 kts 171°
2026-05-08 18:58 0.18569 32.41805 6291 ft 174 kts 171°
2026-05-08 18:58 0.17364 32.41973 6071 ft 175 kts 171°
2026-05-08 18:58 0.16160 32.42146 5846 ft 175 kts 170°
2026-05-08 18:59 0.14960 32.42303 5636 ft 173 kts 173°
2026-05-08 18:59 0.13778 32.42453 5431 ft 171 kts 168°
2026-05-08 18:59 0.12607 32.42654 5206 ft 167 kts 171°
2026-05-08 18:59 0.11492 32.42797 5006 ft 158 kts 171°
2026-05-08 19:00 0.10770 32.42890 4868 ft 158 kts 171°
2026-05-08 19:00 0.09341 32.43063 4601 ft 153 kts 171°
2026-05-08 19:00 0.08297 32.43200 4416 ft 149 kts 169°
2026-05-08 19:00 0.07286 32.43381 4218 ft 147 kts 170°
2026-05-08 19:01 0.06268 32.43510 3950 ft 147 kts 168°
2026-05-08 19:01 0.05272 32.43655 3789 ft 139 kts 172°
2026-05-08 19:01 0.04448 32.43772 3787 ft 111 kts 172°
2026-05-08 19:01 0.03445 32.43913 3906 ft 167 kts 172°
2026-05-08 19:02 0.02353 32.44073 4908 ft 162 kts 168°
2026-05-08 19:02 0.01182 32.44314 5428 ft 189 kts 172°
2026-05-08 19:02 -0.00188 32.43915 5494 ft 222 kts 216°
2026-05-08 19:02 -0.01132 32.43124 7378 ft 124 kts 223°
2026-05-08 19:03 -0.01476 32.42467 8214 ft 122 kts 262°
2026-05-08 19:03 -0.01338 32.41228 7216 ft 226 kts 279°
2026-05-08 19:03 -0.01040 32.40205 7328 ft 237 kts 290°
2026-05-08 19:03 -0.00104 32.38086 7686 ft 259 kts 293°
2026-05-08 19:04 0.00389 32.36985 7932 ft 264 kts 293°
2026-05-08 19:04 0.01129 32.35307 8033 ft 263 kts 293°
2026-05-08 19:04 0.02090 32.33098 8111 ft 262 kts 292°
2026-05-08 19:04 0.02814 32.31428 8157 ft 262 kts 294°
2026-05-08 19:05 0.03598 32.30266 8141 ft 264 kts 317°
2026-05-08 19:05 0.04211 32.29803 8156 ft 264 kts 330°
2026-05-08 19:05 0.05939 32.29224 8161 ft 263 kts 351°
2026-05-08 19:06 0.07753 32.28963 8158 ft 264 kts 353°
2026-05-08 19:06 0.10168 32.28658 8149 ft 264 kts 353°
2026-05-08 19:06 0.11952 32.28430 8107 ft 251 kts 353°
2026-05-08 19:06 0.13626 32.28209 7994 ft 235 kts 353°
2026-05-08 19:07 0.14680 32.28068 7913 ft 225 kts 353°
2026-05-08 19:07 0.16182 32.27863 7725 ft 213 kts 353°
2026-05-08 19:07 0.17643 32.27663 7329 ft 211 kts 353°
2026-05-08 19:07 0.19097 32.27463 6938 ft 211 kts 353°
2026-05-08 19:08 0.20546 32.27262 6564 ft 210 kts 353°
2026-05-08 19:08 0.21987 32.27266 6146 ft 208 kts 20°
2026-05-08 19:08 0.23097 32.28106 5998 ft 204 kts 58°
2026-05-08 19:08 0.23594 32.29419 5978 ft 203 kts 83°
2026-05-08 19:09 0.23783 32.30812 5944 ft 202 kts 83°
2026-05-08 19:09 0.23971 32.32165 5925 ft 197 kts 84°
2026-05-08 19:09 0.24161 32.33519 5917 ft 197 kts 83°
2026-05-08 19:09 0.24362 32.34876 5931 ft 198 kts 83°
2026-05-08 19:10 0.24531 32.36248 5937 ft 200 kts 84°
2026-05-08 19:10 0.24559 32.37627 5924 ft 199 kts 104°
2026-05-08 19:10 0.24075 32.38892 5937 ft 191 kts 119°
2026-05-08 19:10 0.23341 32.39931 5926 ft 175 kts 133°
2026-05-08 19:11 0.22476 32.40720 5940 ft 166 kts 144°
2026-05-08 19:11 0.21469 32.41275 5969 ft 172 kts 162°
2026-05-08 19:11 0.20284 32.41546 5957 ft 177 kts 169°
2026-05-08 19:11 0.19076 32.41732 5964 ft 174 kts 171°
2026-05-08 19:12 0.17881 32.41900 5959 ft 173 kts 171°
2026-05-08 19:12 0.16686 32.42067 5898 ft 176 kts 171°
2026-05-08 19:12 0.15470 32.42245 5690 ft 178 kts 171°
2026-05-08 19:12 0.14251 32.42413 5468 ft 175 kts 171°
2026-05-08 19:13 0.13096 32.42574 5272 ft 164 kts 172°
2026-05-08 19:13 0.11993 32.42725 5055 ft 157 kts 172°
2026-05-08 19:13 0.10927 32.42857 4932 ft 151 kts 171°
2026-05-08 19:13 0.09862 32.42963 4638 ft 154 kts 170°
2026-05-08 19:14 0.08834 32.43149 4517 ft 152 kts 169°
2026-05-08 19:14 0.07761 32.43302 4369 ft 159 kts 172°
2026-05-08 19:14 0.06654 32.43442 4217 ft 161 kts 170°
2026-05-08 19:14 0.05538 32.43621 3914 ft 164 kts 172°
2026-05-08 19:15 0.04439 32.43775 3790 ft 151 kts 172°
2026-05-08 19:15 0.03588 32.43893 3787 ft 94 kts 172°
2026-05-08 19:15 0.03155 32.43953 3787 ft 38 kts 172°
2026-05-08 19:15 0.03003 32.43978 3788 ft 7 kts 161°
2026-05-08 19:16 0.02959 32.44002 3787 ft 7 kts 145°
2026-05-08 19:16 0.02917 32.44034 3787 ft 9 kts 140°
2026-05-08 19:16 0.02855 32.44086 3783 ft 14 kts 140°
2026-05-08 19:16 0.02831 32.44157 3791 ft 12 kts 46°
2026-05-08 19:17 0.02919 32.44162 3787 ft 14 kts 354°
2026-05-08 19:17 0.03011 32.44147 3782 ft 13 kts 352°
2026-05-08 19:17 0.03101 32.44135 3779 ft 13 kts 352°
2026-05-08 19:17 0.03188 32.44122 3785 ft 13 kts 352°
2026-05-08 19:18 0.03273 32.44111 3780 ft 12 kts 353°
2026-05-08 19:18 0.03356 32.44100 3782 ft 12 kts 350°
2026-05-08 19:18 0.03437 32.44087 3780 ft 12 kts 353°
2026-05-08 19:18 0.03515 32.44078 3783 ft 11 kts 352°
2026-05-08 19:19 0.03593 32.44067 3780 ft 12 kts 352°
2026-05-08 19:19 0.03680 32.44055 3783 ft 14 kts 352°
2026-05-08 19:19 0.03784 32.44041 3785 ft 16 kts 352°
2026-05-08 19:19 0.03901 32.44025 3779 ft 18 kts 352°
2026-05-08 19:20 0.04022 32.44007 3779 ft 17 kts 352°
2026-05-08 19:20 0.04100 32.43997 3779 ft 17 kts 352°
2026-05-08 19:20 0.04201 32.44014 3783 ft 11 kts 60°
2026-05-08 19:20 0.04213 32.44081 3784 ft 4 kts 82°
2026-05-08 19:21 0.04215 32.44088 3782 ft 3 kts 79°
2026-05-08 19:21 0.04225 32.44114 3783 ft 5 kts 57°
2026-05-08 19:21 0.04242 32.44130 3779 ft 0 kts 35°
2026-05-08 19:21 0.04254 32.44138 3781 ft 4 kts 36°
2026-05-08 19:22 0.04267 32.44169 3779 ft 5 kts 79°
2026-05-08 19:22 0.04272 32.44204 3782 ft 5 kts 82°
2026-05-08 19:22 0.04274 32.44220 3781 ft 1 kts 82°
2026-05-08 19:22 0.04275 32.44225 3779 ft 0 kts 82°